[Iaude] MPEC H60: 2024 HF1 [a=0.94,e=0.33,i=7.2,H=25.7]
    mpec at cfa.harvard.edu 
    mpec at cfa.harvard.edu
       
    Mon Apr 22 11:17:28 EDT 2024
    
    
  
M.P.E.C. 2024-H60                                Issued 2024 April 22, 15:15 UT
     The Minor Planet Electronic Circulars contain information on unusual
         minor planets, routine data on comets and natural satellites,
         and occasional editorial announcements.  They are published
    on behalf of Division F of the International Astronomical Union by the
          Minor Planet Center, Smithsonian Astrophysical Observatory,
                          Cambridge, MA 02138, U.S.A.
			  
             Prepared using the Tamkin Foundation Computer Network
                              MPC at CFA.HARVARD.EDU
            URL https://www.minorplanetcenter.net/    ISSN 1523-6714
                                    2024 HF1                                    
Observations:
     K24H01F* C2024 04 20.59005116 39 03.871+03 17 47.79         20.77wXEH060F52
     K24H01F  C2024 04 20.59792016 39 06.961+03 18 01.90         20.86wXEH060F52
     K24H01F  C2024 04 20.61365616 39 13.187+03 18 29.90         20.75wXEH060F52
     K24H01F KC2024 04 21.23715316 44 38.296+03 38 01.75         20.89GVEH060I52
     K24H01F KC2024 04 21.23920116 44 39.286+03 38 06.29         21.47GVEH060I52
     K24H01F KC2024 04 21.24122316 44 40.355+03 38 09.35         20.50GVEH060I52
     K24H01F KC2024 04 21.24324516 44 41.384+03 38 14.03         20.24GVEH060I52
     K24H01F  C2024 04 21.56303416 47 30.317+03 50 34.38         20.52GVEH060F51
     K24H01F  C2024 04 21.56386116 47 30.809+03 50 36.59         20.49GVEH060F51
     K24H01F KC2024 04 22.31263816 55 44.32 +04 20 46.4          20.3 GVEH060H21
     K24H01F KC2024 04 22.31842416 55 48.17 +04 21 02.8          20.5 GVEH060H21
     K24H01F  C2024 04 22.32434116 55 56.087+04 21 35.49         19.9 GVEH060H01
     K24H01F KC2024 04 22.32440316 55 52.11 +04 21 19.4          20.5 GVEH060H21
     K24H01F  C2024 04 22.32907216 55 59.213+04 21 48.69         20.2 GVEH060H01
     K24H01F KC2024 04 22.33735816 56 00.63 +04 21 55.2          20.4 GVEH060H21
     K24H01F  C2024 04 22.33994716 56 06.433+04 22 19.34         19.9 GVEH060H01
     K24H01F  C2024 04 22.34535916 56 10.025+04 22 34.61         19.8 GVEH060H01
     K24H01F KC2024 04 22.48014016 57 41.278+04 29 04.02         20.34GVEH060I52
     K24H01F KC2024 04 22.48169016 57 42.307+04 29 08.02         20.08GVEH060I52
     K24H01F KC2024 04 22.48324316 57 43.369+04 29 12.70         19.81GVEH060I52
Observer details:
F51 Pan-STARRS 1, Haleakala.  Observers J. Herman, T. Lowe, P. Minguez, A.
    Schultz, I. Smith.  Measurers K. Chambers, T. de Boer, J. Fairlamb, H.
    Gao, M. Huber, C.-C. Lin, E. Magnier, Y. Ramanjooloo, R. Wainscoat, R.
    Weryk.  1.8-m Ritchey-Chretien + CCD.
F52 Pan-STARRS 2, Haleakala.  Observers J. Herman, T. Lowe, P. Minguez, A.
    Schultz, I. Smith.  Measurers K. Chambers, T. de Boer, J. Fairlamb, H.
    Gao, M. Huber, C.-C. Lin, E. Magnier, Y. Ramanjooloo, R. Wainscoat, R.
    Weryk.  1.8-m Ritchey-Chretien + CCD.
H01 Magdalena Ridge Observatory, Socorro.  Observers W. H. Ryan, E. V. Ryan.
    Measurer W. H. Ryan.  2.4-m f/8.9 Ritchey-Chretien + CCD.
H21 Astronomical Research Observatory, Westfield.  Observer R. Holmes.
    Measurers T. Linder, R. Holmes, L. Horn.  0.76-m f/3.0 astrograph + CCD.
I52 Steward Observatory, Mt. Lemmon Station.  Observer R. A. Kowalski.
    Measurers T. Beuden, V. F. Carvajal, D. Fay, J. B. Fazekas, D. C. Fuls, A.
    R. Gibbs, A. D. Grauer, H. Groeller, J. K. Hogan, R. A. Kowalski, S. M.
    Larson, G. J. Leonard, D. Rankin, R. L. Seaman, F. C. Shelly, K. W.
    Wierzchos.  1.0-m prime focus + CCD.
Orbital elements:
2024 HF1                                                 Earth MOID = 0.0073 AU
Epoch 2024 Mar. 31.0 TT = JDT 2460400.5                 MPC                     
M 246.04154              (2000.0)            P               Q                  
n   1.08398890     Peri.  297.34882     +0.92662179     +0.36666807             
a   0.9385401      Node    41.28992     -0.28473844     +0.82887575             
e   0.3287996      Incl.    7.24574     -0.24555261     +0.42251569             
P   0.91           H   25.78          G   0.15           U   6                  
Residuals in seconds of arc
240420 F52  0.1-  0.1+    240421 F51  0.6-  0.1-    240422 H21  0.0   0.3-
240420 F52  0.0   0.1+    240421 F51  0.4+  0.3+    240422 H01  0.3-  0.0
240420 F52  0.3+  0.0     240422 H21  0.3-  0.1-    240422 H01  0.3-  0.0
240421 I52  0.4+  0.4+    240422 H21  0.3+  0.2+    240422 I52  0.3+  0.2+
240421 I52  0.5-  0.5+    240422 H01  0.0   0.3+    240422 I52  0.2-  0.3-
240421 I52  0.0   0.8-    240422 H21  0.4+  0.1+    240422 I52  0.3-  0.0
240421 I52  0.1-  0.4-    240422 H01  0.3-  0.1+
Ephemeris:
2024 HF1                 a,e,i = 0.94, 0.33, 7                   q = 0.6299
Date    TT    R. A. (2000) Decl.     Delta      r    Elong.  Phase     V
2024 03 23    15 36 02.0 -00 41 45   0.2385  1.1597   128.3    42.4    24.6
...
2024 04 07    15 56 32.5 +00 23 54   0.1360  1.1034   136.3    38.8    23.2
...
2024 04 15    16 13 05.2 +01 33 12   0.08427 1.0680   138.7    38.3    22.1
...
2024 04 21    16 42 24.0 +03 31 35   0.04692 1.0390   135.8    42.4    20.9
2024 04 22    16 52 03.2 +04 09 03   0.04088 1.0340   134.1    44.3    20.6
2024 04 23    17 04 56.4 +04 58 02   0.03496 1.0289   131.6    47.0    20.3
...
2024 04 29    23 13 31.5 +13 55 16   0.01397 0.9975    46.5   132.9    22.5
...
2024 05 07    02 51 51.6 +03 55 05   0.05773 0.9529    12.9   166.3    33.4
...
2024 05 22    03 23 05.6 +03 04 19   0.1595  0.8631    19.0   157.5    31.6
A. U. Tomatic                (C) Copyright 2024 MPC           M.P.E.C. 2024-H60
    
    
More information about the Iaude
mailing list